Wind_Speed
64 65 65 65 66 64 60 56 54 50 51 54 54 54 55 55 54 53 53 50 45 42 41 35 31 31 31 32 33 32 30 28 27 27 26 27 27 28 28 26 25 26 27 28 29 30 31 34 38 41 45 49 51 53 56 59 59 54 52 57 64 70 78 82 83 83 85 86 88 89 88 87 86 85 84 83 82 81 80 79 79 78 75 73 73 72 71
66 67 67 67 67 64 60 58 54 51 54 56 54 53 54 55 54 54 54 51 46 45 42 35 31 31 31 30 32 33 31 29 28 27 25 25 27 27 28 28 25 24 26 27 27 27 28 30 32 35 39 43 47 50 52 55 57 56 57 62 67 71 75 77 78 80 81 83 85 86 86 85 85 84 83 82 82 81 77 74 74 75 73 71 71 70 70
67 69 70 69 67 65 62 58 53 54 59 57 53 52 54 55 55 56 55 53 49 46 42 36 33 32 30 29 30 31 31 29 28 28 26 25 26 27 27 28 26 24 23 24 25 25 26 27 28 30 33 37 40 45 48 51 52 55 59 64 68 70 72 73 74 75 76 78 80 81 82 81 81 81 82 81 80 78 75 71 70 71 72 72 72 71 71
69 69 72 72 70 68 63 54 54 61 62 56 51 53 54 55 56 57 56 55 51 46 41 37 34 32 30 30 30 31 31 29 27 27 25 24 25 26 27 28 26 23 21 21 22 23 24 25 26 27 30 32 34 37 40 42 44 46 51 57 61 64 66 66 67 67 68 71 73 75 76 77 77 79 80 79 76 73 73 72 71 71 73 74 75 75 74
72 71 73 74 73 69 59 54 61 65 61 54 53 54 55 56 57 57 57 56 51 45 40 37 34 31 30 30 31 31 31 29 27 25 24 24 25 26 27 29 27 24 21 20 20 21 22 23 24 26 28 31 32 33 33 35 36 38 41 46 51 54 56 58 59 60 61 62 64 66 69 71 72 73 73 73 71 69 69 69 70 70 72 73 75 76 77
77 75 75 77 76 67 57 60 67 64 57 54 54 53 55 58 58 58 57 54 49 44 40 37 34 32 31 30 31 32 31 31 28 25 23 24 24 25 27 29 29 27 24 22 20 19 19 20 22 24 26 29 31 32 33 33 35 36 38 41 44 47 49 51 52 54 55 56 57 59 62 64 66 67 68 68 68 68 68 68 69 70 71 72 73 75 76
82 79 78 79 74 65 62 65 65 60 57 56 53 52 55 58 60 60 56 49 45 42 40 37 35 34 32 30 31 33 32 32 28 24 23 24 24 24 26 27 29 29 27 26 24 21 18 18 19 21 23 25 27 30 33 35 36 38 40 42 43 45 47 49 50 51 53 54 55 56 58 60 62 63 64 65 66 68 69 69 70 70 70 70 70 71 71
84 81 80 77 70 66 65 62 57 57 59 57 53 51 54 58 61 59 52 45 42 41 39 38 36 34 32 31 32 33 34 33 29 24 23 23 23 24 24 24 26 27 26 26 26 25 22 19 17 18 20 22 23 26 30 32 35 38 41 42 44 45 47 49 51 52 53 54 55 56 56 57 58 59 61 63 65 67 69 68 68 67 66 66 67 68 67
83 80 77 73 69 67 61 54 54 59 60 57 54 52 53 57 59 54 47 43 41 39 37 37 37 34 32 32 32 33 34 34 30 26 25 23 22 23 24 23 24 25 25 24 25 25 24 22 20 17 18 20 22 24 26 29 32 35 37 39 41 44 46 47 49 51 53 54 55 56 56 56 57 59 61 63 64 65 64 64 63 62 61 62 64 64 65
79 77 74 70 67 62 55 53 56 59 58 56 55 54 53 55 56 52 45 41 39 38 37 36 35 33 32 32 32 33 35 34 30 28 26 24 23 23 24 24 24 24 24 24 24 24 23 23 23 21 19 19 21 23 25 27 30 33 35 37 39 41 43 45 47 48 50 51 52 52 52 53 54 55 56 56 57 57 57 57 57 57 58 58 59 60 62
74 72 70 66 62 57 54 54 55 56 56 56 57 55 53 53 54 50 43 40 39 39 37 36 35 34 34 33 33 34 35 33 31 29 26 24 23 22 24 25 25 24 24 23 24 24 23 23 24 23 22 22 22 23 25 26 28 30 32 34 36 38 40 41 43 44 45 46 46 46 47 48 49 49 49 50 50 51 51 52 53 55 56 56 56 57 58
68 67 65 62 57 54 53 53 52 54 56 56 57 56 53 54 54 47 40 40 41 41 39 36 36 36 36 35 35 35 34 33 31 30 27 25 23 22 23 25 25 24 24 23 23 23 23 23 23 23 23 24 24 24 25 26 27 28 29 31 33 34 36 37 38 39 41 42 42 42 43 44 45 46 46 47 48 48 48 48 50 52 54 55 54 55 55
64 63 62 58 53 50 50 50 51 54 57 56 57 56 54 55 52 45 41 42 44 44 41 37 36 38 38 37 36 35 34 33 32 30 27 25 24 22 23 25 26 24 24 23 22 22 22 22 22 23 23 23 24 24 25 26 27 28 29 30 31 32 33 34 35 37 38 39 39 39 40 41 43 44 44 45 45 46 45 46 48 50 51 51 52 52 53
60 60 59 55 50 47 49 51 52 56 57 56 56 55 54 53 50 44 43 43 44 44 43 39 36 36 38 38 36 35 34 34 32 30 27 26 24 22 22 25 26 25 24 24 23 22 21 20 20 21 22 23 23 24 25 26 27 28 28 29 29 30 30 31 33 35 36 36 37 38 39 40 41 42 42 42 43 43 44 44 46 48 48 48 48 50 51
57 57 56 52 48 48 51 53 53 55 57 57 56 54 52 51 48 44 44 45 44 44 42 38 35 35 36 37 36 35 35 34 33 30 27 25 24 23 22 23 25 25 24 24 23 21 20 19 19 20 22 22 23 23 24 25 26 27 28 28 28 28 29 30 31 33 33 35 36 37 38 38 40 41 41 41 40 41 41 42 45 46 46 46 46 47 48
54 54 53 51 51 52 53 53 54 57 59 58 56 52 49 49 47 45 46 46 44 41 37 33 32 34 35 35 36 36 35 34 33 31 28 26 24 23 22 22 23 24 24 24 23 21 20 19 19 20 20 21 21 22 23 24 25 26 27 27 28 28 28 29 30 31 33 34 36 36 36 37 39 40 40 39 39 38 39 40 43 44 45 45 46 46 47
53 53 52 53 54 54 55 55 57 59 60 58 55 51 48 47 47 47 48 46 43 41 37 31 30 32 34 34 36 36 35 35 34 31 28 26 24 23 22 22 22 22 23 23 23 22 21 20 20 20 19 19 20 21 22 24 24 25 26 26 27 27 27 28 29 31 32 34 34 34 34 36 38 39 39 38 37 37 38 39 41 42 44 45 45 46 47
54 54 53 54 55 57 59 59 60 59 58 56 54 51 49 48 48 48 48 47 46 44 40 34 31 31 33 35 35 36 36 36 34 31 27 25 24 23 21 21 21 21 22 22 22 21 21 20 20 20 19 19 19 20 22 23 23 24 25 26 26 27 27 28 29 30 31 31 32 32 33 35 36 37 37 37 36 36 37 38 40 41 43 44 46 46 47
55 56 55 57 60 61 61 60 59 59 57 55 55 53 51 50 50 49 48 47 45 43 41 38 35 33 34 35 35 36 37 36 34 31 27 23 23 22 21 20 20 20 21 21 21 21 21 20 19 19 19 19 19 20 21 21 21 22 24 25 26 26 27 27 27 28 29 30 30 31 32 33 34 35 35 35 35 36 37 38 39 40 42 43 45 46 47
57 58 59 62 64 63 60 59 59 58 56 56 56 55 53 54 54 53 52 50 47 45 45 44 40 36 35 36 36 36 37 35 34 32 28 24 21 21 20 19 19 20 21 20 20 20 20 20 19 19 19 20 20 20 20 20 21 22 23 24 24 25 25 25 25 26 27 28 29 30 30 31 32 33 34 34 34 35 36 37 38 39 41 42 43 44 45
59 60 62 65 65 62 61 60 59 59 58 57 57 57 57 57 57 57 56 53 50 48 48 45 40 38 37 37 36 36 36 34 32 31 29 25 21 19 19 18 19 20 21 21 20 19 19 19 18 18 19 20 20 20 19 19 19 20 21 22 23 23 23 23 24 24 25 26 27 28 29 29 31 31 32 32 33 34 35 35 36 38 39 40 40 40 41
60 62 65 66 63 61 61 61 60 60 60 60 59 60 60 60 59 59 58 56 52 50 48 42 38 38 39 38 38 38 36 33 30 29 28 26 22 19 18 18 19 20 21 21 20 19 18 18 17 17 18 20 21 20 19 18 18 19 19 19 20 20 20 21 22 22 23 24 26 27 27 28 29 30 30 30 31 33 35 35 35 35 36 36 36 36 36
62 64 66 65 61 60 61 61 60 61 61 61 61 61 60 60 59 57 56 54 50 48 47 43 40 39 40 40 41 41 37 32 28 27 26 25 23 20 18 18 19 20 21 21 20 18 18 17 16 16 17 19 21 20 19 18 17 18 17 18 18 18 18 18 19 20 22 23 25 26 27 27 27 28 29 29 30 32 33 32 32 31 31 31 32 31 32
62 63 64 62 59 58 60 61 62 63 62 61 60 60 59 58 56 55 54 53 50 47 46 45 42 40 41 43 44 42 37 31 27 26 26 25 23 21 19 18 19 20 21 21 19 18 17 16 15 15 16 18 19 19 19 18 18 17 17 17 16 16 16 16 17 19 20 22 23 25 26 26 26 27 28 28 28 29 29 28 28 27 26 26 27 27 28
59 60 61 60 58 58 60 62 63 63 61 59 58 58 57 55 54 54 54 54 53 50 48 46 42 40 42 45 46 42 37 30 26 25 26 25 23 22 20 19 19 19 20 20 19 18 17 16 15 15 15 16 17 18 18 18 17 17 17 16 16 15 15 15 16 17 19 20 21 22 23 24 25 26 27 27 25 24 24 24 23 22 22 21 22 23 23
58 59 60 59 57 57 60 61 62 61 58 56 55 55 55 54 54 54 54 54 54 52 49 47 43 40 41 45 47 44 38 31 26 26 26 25 24 22 21 20 19 19 20 20 19 18 17 16 15 15 15 16 17 17 17 17 17 17 17 16 15 15 14 14 15 16 18 19 19 20 21 22 23 25 26 24 22 21 20 20 19 18 18 18 18 19 19
57 57 57 56 55 57 58 59 58 56 54 53 53 52 53 54 54 53 54 55 54 52 50 49 46 42 40 44 49 46 39 32 27 27 28 27 24 22 22 21 20 19 19 20 19 18 17 16 15 14 14 15 16 16 16 16 16 16 16 16 15 14 14 14 15 16 17 18 18 19 21 21 22 22 23 21 19 17 16 16 15 15 14 14 15 15 15
56 56 55 53 53 55 56 55 54 53 52 52 52 51 52 53 53 53 54 55 55 54 53 52 50 45 44 48 51 48 41 34 29 28 30 29 25 23 23 22 20 20 19 19 19 18 17 16 15 13 13 13 14 15 15 15 15 15 15 15 15 14 14 14 15 16 17 18 18 19 20 21 21 20 19 18 16 14 13 13 12 11 11 11 11 11 11
54 54 53 51 52 53 54 52 51 51 51 52 51 50 51 51 52 53 55 55 55 55 55 55 54 50 48 52 54 49 43 37 31 30 32 30 26 24 24 22 21 20 19 19 19 19 18 16 15 13 12 12 13 14 14 14 14 14 14 15 14 14 14 14 15 16 17 18 18 19 20 21 20 18 16 15 13 12 11 10 9 8 7 6 6 6 6
52 51 51 50 50 51 51 51 50 50 50 50 49 50 50 51 51 53 54 54 55 55 55 56 56 54 52 52 53 50 44 39 34 32 33 31 27 25 24 23 22 21 19 19 19 19 18 17 15 13 12 11 12 13 14 14 14 13 13 14 14 14 14 14 15 16 17 18 19 19 20 21 20 18 16 14 12 10 9 8 7 6 5 4 3 3 2
51 50 49 49 48 48 49 50 49 49 48 48 49 49 49 49 50 52 53 54 54 55 55 56 57 56 54 53 53 50 46 40 35 33 33 32 29 26 25 24 23 21 20 19 20 20 19 18 16 14 12 11 11 12 13 13 13 12 12 12 13 13 13 13 14 15 17 19 20 21 21 22 21 19 16 14 12 10 8 7 6 5 5 5 6 6 6
49 48 48 48 47 47 48 49 48 47 46 47 48 48 48 49 49 50 51 52 53 54 54 56 57 57 56 55 54 51 46 41 36 34 34 33 31 28 27 25 24 22 21 20 20 20 20 19 16 15 13 12 11 11 12 12 12 12 11 11 11 12 13 13 13 14 16 18 20 22 23 23 23 20 17 14 12 9 7 6 5 6 7 8 9 9 10
48 48 47 47 47 48 48 47 47 46 46 46 47 48 48 48 48 49 49 51 52 53 54 56 57 58 57 57 55 52 47 42 37 36 36 36 33 30 28 27 25 23 21 21 20 21 21 20 18 16 14 12 12 11 11 11 11 11 11 11 11 11 12 12 12 13 15 17 19 21 23 24 24 22 18 15 12 8 6 5 6 7 9 10 11 12 14
48 48 47 48 48 47 47 46 46 46 46 46 46 47 47 47 47 48 49 50 51 52 53 55 56 56 56 56 55 52 48 44 40 39 40 39 36 32 30 28 26 24 23 22 21 21 21 20 19 17 15 14 13 12 11 11 10 11 11 11 11 10 11 12 12 12 14 15 17 20 21 23 24 23 20 16 11 7 5 5 6 8 9 9 11 13 14
48 48 49 48 48 47 47 46 46 46 46 46 46 46 47 47 47 47 48 49 49 50 52 54 55 55 55 54 52 50 48 45 43 43 43 40 37 33 30 28 27 26 24 23 23 22 21 21 20 19 17 16 15 13 12 11 10 10 11 11 11 11 11 11 11 12 12 14 16 18 19 21 22 22 21 17 11 5 4 5 5 7 8 8 9 10 11
49 50 49 48 47 48 48 47 45 45 45 46 46 46 46 46 46 46 47 48 48 49 51 53 54 54 55 54 52 49 47 45 44 43 43 41 37 34 31 30 30 28 26 25 24 22 21 21 22 21 19 17 16 14 13 12 12 11 10 10 11 11 11 11 11 11 11 12 13 15 16 18 19 20 20 18 13 5 3 4 4 5 6 6 6 6 7
51 50 49 48 48 49 47 45 44 44 45 46 46 45 45 46 46 46 47 47 48 49 51 52 53 54 55 54 52 50 48 46 44 44 43 41 38 36 33 32 32 30 28 27 25 22 21 22 23 22 21 19 18 16 15 14 13 12 11 10 10 10 10 10 10 10 10 11 11 12 13 15 16 17 18 18 14 8 1 5 5 5 5 5 5 4 4
51 50 49 48 48 48 46 44 43 44 45 46 46 46 46 46 46 46 46 47 48 49 51 52 53 53 54 54 52 51 49 48 46 45 44 43 40 37 35 34 34 33 31 28 25 23 23 24 24 23 22 21 20 18 17 16 15 14 12 11 10 9 9 9 9 10 10 10 10 10 10 11 12 14 14 15 15 11 4 3 7 7 6 5 5 5 5
51 49 48 48 47 47 46 45 45 45 46 47 47 48 47 46 46 46 47 47 48 49 51 52 53 53 53 53 52 51 51 49 47 46 46 45 42 39 37 36 36 35 33 30 27 25 25 25 24 24 24 23 22 20 19 18 17 16 14 12 11 10 10 9 9 9 9 9 9 9 9 9 9 10 11 11 12 12 9 3 4 9 10 10 9 8 8
51 48 46 47 48 48 47 47 46 46 47 48 49 48 47 47 47 47 47 48 48 49 50 52 52 53 54 54 53 53 52 50 48 47 48 47 44 41 39 38 39 38 35 32 28 26 27 27 26 25 25 25 24 22 21 20 18 17 16 14 13 12 11 10 10 9 9 8 9 9 9 8 8 8 9 9 9 9 9 8 4 2 8 11 13 13 13
49 46 44 45 47 49 49 48 47 47 47 48 49 49 48 47 47 47 47 48 48 49 51 53 53 54 55 55 54 54 54 51 49 48 49 48 45 43 41 41 41 39 37 34 30 28 28 28 28 27 27 27 26 24 22 21 21 19 18 17 15 14 13 12 12 11 10 9 9 9 8 8 8 8 8 7 7 7 7 7 7 5 3 4 8 12 15
47 45 43 44 47 51 51 50 48 47 48 49 49 49 49 48 48 48 48 49 49 50 52 53 54 54 55 55 54 55 54 53 50 49 49 49 47 45 43 43 42 40 38 36 33 30 29 29 29 29 29 29 29 27 24 23 23 23 21 19 18 17 15 15 14 13 12 11 10 9 9 8 8 8 8 7 7 7 6 6 6 5 5 4 3 4 7
46 45 44 44 47 51 53 51 49 48 49 49 50 50 50 49 49 48 48 48 49 50 51 52 53 54 54 55 55 56 56 54 51 49 50 51 49 47 46 45 43 41 40 39 36 32 30 30 30 30 30 30 30 29 26 25 25 25 24 23 22 20 18 17 16 15 14 13 12 11 10 10 9 10 9 8 8 8 7 7 7 7 6 6 5 4 4
46 46 45 45 48 51 54 53 51 50 50 50 51 51 51 50 49 48 48 49 50 50 51 52 53 54 55 56 56 57 57 55 53 51 51 51 50 49 48 47 45 43 41 40 37 34 32 31 31 31 31 31 31 31 29 27 27 27 27 26 25 24 22 21 19 18 17 16 14 13 13 12 12 12 11 11 10 9 9 9 8 8 8 8 8 7 7
46 47 47 47 48 52 54 55 53 51 51 51 51 52 52 51 50 49 49 50 50 51 52 53 54 55 56 57 57 57 57 56 54 52 51 51 52 51 51 49 47 44 42 41 39 37 35 33 32 32 32 32 31 31 31 30 29 28 28 28 27 27 25 24 22 21 19 18 17 16 16 15 15 15 14 13 12 11 11 11 11 10 10 10 10 10 10
45 47 48 49 49 52 55 56 54 51 50 51 51 51 51 50 50 50 50 50 51 52 53 54 55 56 57 57 58 58 57 57 56 54 53 53 53 54 53 51 48 45 43 43 42 40 38 36 34 33 33 33 32 32 32 32 31 30 30 29 29 29 28 27 25 24 22 21 20 19 19 18 18 18 17 16 15 14 14 14 13 13 13 13 13 13 13
45 46 48 49 50 51 53 55 53 51 50 50 50 50 50 50 50 50 50 51 52 53 53 54 56 57 57 58 59 59 59 58 58 56 55 54 55 56 55 53 50 47 45 44 44 43 41 39 36 35 34 34 33 32 32 33 32 32 32 32 31 31 30 29 28 26 25 24 23 22 21 21 21 21 20 19 18 17 17 17 17 17 17 16 16 16 17
44 45 47 48 49 50 52 52 52 51 50 48 48 49 50 50 50 50 51 52 53 53 54 55 56 57 58 58 59 60 60 60 59 58 56 56 57 58 57 55 53 50 47 46 46 46 44 42 40 38 36 35 35 34 33 33 33 34 34 33 33 32 32 31 30 29 27 26 25 24 24 23 23 23 22 22 21 20 20 20 20 20 20 19 19 20 20
43 44 45 46 48 49 50 51 51 51 48 47 48 49 50 50 50 51 51 52 53 54 54 55 56 57 58 58 59 60 61 60 60 59 58 57 57 59 58 56 54 52 50 48 49 49 47 45 43 41 38 37 36 36 35 35 34 35 35 35 34 34 33 33 32 31 29 28 27 26 25 25 25 25 25 24 23 23 23 22 22 22 22 22 22 23 23
41 42 43 44 45 47 48 49 50 49 48 47 48 49 49 49 50 51 51 52 53 54 54 55 56 57 57 58 58 59 60 60 60 60 59 57 57 58 59 57 56 55 53 51 50 50 49 47 46 44 41 39 38 38 37 36 36 35 36 36 36 35 35 34 34 32 31 29 28 27 27 27 27 26 26 26 26 25 25 25 24 24 24 25 25 26 26
38 39 41 41 42 43 45 46 47 47 47 46 47 48 49 49 50 51 51 52 53 53 54 55 56 56 56 57 57 58 59 60 60 60 59 57 56 57 59 60 59 57 55 53 51 50 50 50 48 46 44 42 41 39 39 38 37 37 37 37 37 37 36 36 34 33 32 31 29 28 28 28 29 28 28 28 28 28 28 28 28 27 27 27 28 28 28
36 37 38 39 40 41 43 44 45 45 45 45 45 47 48 49 49 50 50 51 52 53 53 54 55 55 56 56 57 57 58 58 59 60 60 59 57 58 60 62 61 59 57 54 52 51 51 51 50 48 47 45 43 41 40 39 38 38 38 38 38 38 37 36 35 34 33 33 31 30 29 30 30 30 30 30 30 30 30 30 30 30 29 29 29 29 29
Wind_Direction
309 309 310 310 311 315 318 318 315 307 298 296 300 301 300 301 303 305 306 309 306 297 292 293 293 290 289 291 295 297 299 303 304 303 304 307 309 308 307 304 301 298 296 295 291 286 280 273 267 262 257 253 250 249 250 253 253 251 250 250 250 252 255 256 257 258 258 259 259 259 260 260 261 261 262 263 264 264 265 264 262 260 259 256 252 249 248
307 307 307 308 310 312 315 316 312 301 296 299 301 298 297 298 300 301 304 308 305 295 293 296 292 288 288 290 292 296 298 302 304 303 304 308 309 308 308 308 306 304 300 299 298 293 287 281 274 266 260 256 253 251 251 252 253 251 249 250 252 254 257 258 259 259 260 260 261 261 261 261 262 262 262 262 263 264 263 262 259 256 255 253 251 249 248
304 305 305 306 307 309 313 314 305 295 299 304 301 295 294 295 297 299 302 306 303 295 295 295 289 287 289 288 289 293 297 300 303 303 305 309 309 308 307 307 308 309 305 301 299 296 291 286 280 273 265 260 256 254 253 254 255 253 251 251 253 255 258 259 260 261 262 262 262 262 262 262 262 262 263 262 263 263 261 260 258 255 253 254 253 252 250
302 302 302 303 303 306 312 308 295 296 304 305 296 292 292 293 295 298 300 303 301 296 294 292 288 287 288 287 289 291 294 297 299 301 304 307 308 308 306 304 306 309 307 303 299 296 293 289 285 280 273 266 261 259 259 259 258 256 253 251 252 255 257 259 260 262 262 263 263 263 263 263 262 261 262 263 263 262 260 260 261 259 257 257 256 254 252
298 299 300 299 300 305 308 297 292 301 305 299 292 291 291 291 293 295 298 301 298 294 293 291 287 285 285 287 289 290 293 296 295 299 303 305 307 309 306 304 305 307 307 304 300 297 295 292 287 282 277 272 268 267 268 268 266 263 259 256 254 255 257 258 260 262 264 265 265 264 263 263 262 262 262 263 263 263 263 264 265 264 263 262 259 258 256
295 296 295 295 298 303 299 291 296 303 299 292 291 290 289 290 292 293 296 298 294 292 291 288 284 282 282 286 288 289 293 294 293 298 304 304 307 310 308 307 307 307 308 306 302 298 295 293 289 282 276 272 270 269 269 269 269 268 265 263 261 260 260 261 262 264 265 266 265 264 263 263 263 263 263 264 265 266 266 267 267 267 266 264 262 260 257
292 292 292 294 297 297 292 292 298 298 292 289 289 288 287 289 290 291 294 294 290 288 289 287 283 281 281 284 285 287 291 291 291 296 301 301 305 309 310 310 308 308 309 309 307 304 300 295 291 285 278 272 268 266 266 266 266 266 265 264 264 264 264 264 264 264 264 265 265 265 264 264 264 264 265 266 266 266 266 266 267 266 265 263 261 259 257
290 291 291 292 293 291 291 293 293 289 287 288 288 287 286 287 288 290 292 291 286 284 286 285 283 281 280 281 282 285 288 290 291 295 298 298 302 306 308 308 306 304 304 304 305 304 303 299 292 285 280 276 270 265 264 264 264 265 265 265 264 265 265 266 266 266 265 265 265 265 265 264 265 265 265 265 265 265 266 266 266 265 263 262 260 258 255
289 289 289 289 289 288 289 287 284 283 285 286 286 286 285 285 286 288 290 288 284 282 283 281 280 281 280 279 281 283 285 287 290 293 295 297 300 304 306 307 305 302 300 297 296 298 299 298 294 286 279 274 272 269 267 265 264 263 264 264 264 264 265 265 267 267 267 267 266 265 265 264 264 263 263 264 264 265 265 265 265 264 263 262 261 258 255
287 287 288 287 286 286 283 279 279 282 283 283 284 284 284 285 285 287 288 286 281 278 277 276 278 280 279 278 279 280 281 285 289 291 292 296 298 302 305 306 304 302 298 293 289 289 290 291 291 290 284 276 271 268 266 265 264 263 263 263 263 263 263 263 264 266 266 267 267 267 267 266 265 265 265 265 265 265 265 265 265 265 263 262 260 259 257
285 285 285 284 283 282 278 276 278 280 280 280 281 282 284 283 284 287 287 282 276 273 271 273 275 276 276 276 275 275 278 283 287 288 290 293 295 299 304 305 303 301 298 292 287 285 284 283 284 284 283 280 275 270 267 265 265 264 264 264 264 264 264 265 265 266 267 268 269 269 270 270 269 269 268 267 267 266 266 265 265 264 262 261 260 258 257
282 281 281 281 280 278 275 275 276 276 276 277 278 280 282 282 283 285 282 275 272 270 269 272 274 273 272 271 271 272 276 280 284 286 288 291 293 296 301 303 301 300 298 293 287 283 282 281 281 280 278 277 275 273 272 270 269 268 267 266 266 266 267 267 268 269 269 269 270 270 270 270 270 269 269 268 267 267 266 265 264 262 260 260 259 258 257
278 278 278 277 276 274 273 273 271 270 271 274 276 279 281 281 282 280 274 270 271 271 272 274 275 273 270 268 268 271 273 276 280 283 285 288 291 294 298 300 300 299 298 294 287 282 280 279 280 281 280 278 277 276 274 273 272 270 268 268 268 268 268 269 269 269 269 270 270 270 269 269 268 268 268 268 268 268 267 266 264 262 261 260 259 258 257
274 274 274 274 273 271 269 268 265 266 270 274 276 278 280 280 278 276 272 270 270 272 276 277 274 270 267 266 267 268 269 273 277 280 283 286 288 291 294 298 300 300 299 295 289 284 281 280 281 282 282 282 281 280 277 276 275 274 273 272 272 272 271 271 270 270 270 271 270 269 269 268 268 268 268 268 268 268 267 266 265 264 262 261 260 258 257
270 270 271 271 269 265 264 265 265 267 271 273 275 277 278 278 276 274 272 271 271 274 276 273 269 267 266 264 263 264 267 270 274 277 280 282 285 288 291 296 300 301 299 295 291 287 284 283 283 283 284 284 283 282 280 278 277 277 277 277 276 275 273 271 270 270 270 270 269 269 269 269 269 269 269 269 269 268 267 266 265 265 263 261 259 258 256
266 266 266 266 264 263 264 265 265 266 270 273 275 275 275 274 274 272 271 272 274 275 272 266 265 266 265 261 260 263 265 268 271 275 276 277 281 284 287 293 298 300 298 295 291 289 286 285 286 287 287 288 288 286 283 281 279 279 279 279 279 277 275 272 271 270 270 269 269 270 270 270 270 271 271 272 272 271 269 267 266 265 264 262 260 258 256
263 263 263 263 263 263 264 264 264 266 270 272 273 272 271 270 270 271 272 273 275 276 273 267 263 261 259 257 258 262 265 266 270 273 273 275 278 280 283 291 297 298 297 293 290 289 289 290 291 293 294 295 293 290 287 285 285 284 284 283 282 279 277 275 273 271 270 271 272 272 272 272 273 274 275 275 275 274 273 270 268 266 265 263 261 259 257
263 262 262 262 261 261 261 262 264 266 268 269 269 269 269 268 267 269 271 274 276 277 275 271 264 258 254 252 254 259 263 265 269 270 268 270 275 276 280 288 295 298 296 291 287 287 289 292 295 298 298 297 294 290 287 287 287 288 287 285 283 281 279 277 275 275 275 276 276 276 275 276 277 279 280 280 279 277 275 272 270 268 266 265 263 261 259
263 262 261 260 260 260 261 263 264 265 266 267 268 268 268 269 268 268 268 270 272 271 269 268 266 260 253 249 250 255 260 264 268 268 263 261 267 273 277 284 292 295 292 287 285 286 288 293 297 299 300 298 295 293 291 291 291 290 288 286 284 282 281 280 280 280 279 279 279 280 280 281 283 284 284 283 282 279 277 274 272 270 267 266 264 263 261
262 261 261 260 260 261 262 262 263 264 264 265 267 268 268 268 268 268 268 267 267 266 265 267 266 260 253 249 249 252 256 260 265 266 262 258 262 267 273 282 290 291 287 283 281 283 289 294 298 300 301 300 298 298 297 298 297 294 291 289 287 286 286 285 284 283 283 283 284 286 287 287 287 287 286 285 284 281 278 276 274 272 269 267 265 264 263
261 260 260 260 260 262 262 262 263 264 264 265 266 267 267 267 267 268 268 266 264 262 262 264 261 253 248 248 247 249 252 255 260 263 261 259 259 262 270 280 286 287 284 280 279 282 288 293 297 301 301 300 300 300 300 300 298 296 294 293 292 291 291 290 289 289 289 290 291 291 291 291 290 289 288 287 286 283 281 278 276 275 273 270 267 265 263
262 261 260 260 260 262 263 263 264 264 265 265 265 265 266 266 266 266 265 264 261 257 256 256 252 247 245 245 245 246 247 249 253 257 258 258 258 258 265 276 282 283 280 278 277 281 285 290 296 300 300 300 300 302 303 303 301 300 299 298 297 296 295 294 295 295 296 296 297 296 295 295 294 292 291 290 288 286 284 282 280 278 276 274 271 266 261
261 260 260 261 262 263 264 265 265 265 265 264 264 263 263 262 262 261 259 258 255 253 251 249 246 244 245 245 244 244 244 244 247 250 252 256 260 259 261 271 279 281 279 276 275 277 281 287 294 297 298 299 301 304 307 308 307 307 306 305 304 303 301 302 302 303 303 304 304 302 302 301 299 297 295 293 291 289 288 286 284 281 278 276 273 269 263
260 261 263 264 264 265 265 265 265 264 262 261 261 260 259 258 257 255 253 250 249 248 246 246 244 244 246 246 245 244 244 242 243 246 246 251 258 260 260 266 274 278 278 275 273 275 280 285 291 294 295 297 301 305 309 311 313 314 313 313 313 312 312 312 311 310 310 310 309 308 307 305 303 301 298 296 294 292 291 289 287 285 283 279 275 271 266
262 262 263 264 263 263 263 262 261 260 258 257 256 256 256 254 252 250 248 246 244 243 241 241 240 240 243 246 247 246 243 240 240 244 243 245 253 258 259 263 270 274 276 274 272 273 278 283 288 292 295 298 302 307 310 313 316 318 318 319 320 321 322 321 318 317 316 315 313 311 309 308 308 305 303 302 300 297 294 292 292 291 289 285 280 274 268
262 261 261 261 260 259 259 258 258 257 257 256 255 253 253 251 249 247 245 243 241 239 237 237 236 235 239 245 247 246 243 239 239 241 241 241 246 252 255 259 266 271 274 273 270 270 274 279 284 290 295 300 304 308 311 315 318 320 321 323 325 327 330 329 326 325 324 322 320 317 314 315 315 311 308 307 306 303 301 300 299 299 298 293 286 279 271
261 260 259 259 258 257 256 256 256 257 257 256 254 252 250 249 247 245 243 242 240 236 232 233 235 233 233 239 243 244 241 237 236 239 240 238 240 246 250 255 262 267 269 269 266 266 270 275 279 285 291 297 302 307 312 315 318 321 323 325 328 332 337 339 338 337 335 332 329 326 324 324 322 317 313 313 313 312 310 310 311 310 309 304 295 286 276
260 259 258 257 256 256 255 255 255 254 253 252 250 248 247 246 245 243 242 240 238 234 230 230 232 230 229 234 239 240 238 235 233 235 237 236 237 242 245 249 256 262 265 266 264 263 265 270 274 279 286 293 299 304 310 314 316 320 323 326 330 336 344 349 350 349 347 344 340 337 334 333 330 325 321 321 323 323 323 324 324 323 321 317 308 297 284
258 258 258 256 254 254 254 253 252 251 250 249 248 246 244 243 242 241 240 239 238 235 231 229 229 227 228 233 237 237 235 232 230 230 232 233 235 239 242 246 252 258 262 264 261 259 261 264 268 273 280 288 294 300 306 310 314 318 323 327 331 338 348 356 358 358 357 354 351 347 345 343 340 336 333 333 335 338 341 341 339 338 340 339 328 314 298
257 256 256 254 253 253 253 252 251 249 248 247 246 244 243 241 240 239 238 238 237 235 232 230 229 227 227 231 234 235 232 229 226 227 228 229 232 235 238 242 248 254 258 260 258 256 256 258 262 267 273 280 288 295 301 306 310 316 323 327 331 337 346 356 1 3 4 3 1 359 357 354 351 348 345 346 350 354 358 359 359 3 13 23 23 15 10
255 254 253 253 251 251 250 250 248 247 245 245 244 243 241 240 239 238 237 237 236 235 233 231 229 227 227 229 232 232 230 227 224 224 225 226 230 232 233 237 244 249 253 255 255 254 253 253 256 261 265 271 279 287 293 299 305 312 319 325 330 335 342 350 358 3 7 9 9 8 6 4 2 359 355 357 3 9 15 22 29 37 52 62 63 60 60
255 254 253 252 250 249 248 248 248 246 244 243 242 241 240 238 237 236 236 236 236 234 233 231 229 228 228 229 230 230 229 225 223 222 222 223 227 229 230 233 239 245 249 252 252 251 250 251 252 256 260 264 270 276 284 291 298 305 312 320 326 330 335 343 352 0 7 11 14 15 14 12 10 7 4 6 12 20 35 52 61 66 70 70 64 57 54
254 253 252 251 249 248 247 247 247 245 244 242 241 240 239 237 236 235 234 234 234 234 233 232 230 228 228 228 228 228 227 224 221 221 221 221 224 225 226 228 234 240 245 249 249 249 249 248 249 252 256 259 263 268 274 281 289 296 303 310 319 324 329 336 345 356 5 10 15 19 19 18 15 13 12 13 18 32 60 81 82 78 74 67 60 54 50
252 252 250 249 248 247 246 245 244 244 242 241 240 239 238 236 234 233 232 232 232 232 232 233 232 231 231 230 228 227 226 223 220 219 219 220 221 222 222 224 230 236 240 244 246 246 246 246 247 248 251 254 256 260 265 271 278 285 292 299 308 315 321 328 338 350 1 8 13 18 22 22 20 18 17 18 24 45 87 103 94 88 81 68 61 58 51
250 249 248 247 247 246 245 243 242 242 241 240 239 238 237 235 233 232 231 231 230 230 230 232 232 232 233 232 231 229 227 224 220 218 217 218 220 221 221 222 227 232 236 239 242 243 243 244 245 245 246 249 252 255 258 261 265 270 278 287 296 304 311 320 329 342 354 3 8 13 19 23 24 22 21 22 27 52 114 125 112 106 99 83 72 68 59
246 246 246 246 245 244 243 242 241 240 240 240 239 237 237 236 234 232 231 230 229 227 228 229 229 230 230 231 231 229 228 227 224 220 217 217 219 221 221 221 224 229 232 235 238 239 240 241 242 243 244 246 249 251 253 255 257 258 263 272 282 292 301 310 320 331 344 354 1 6 12 18 23 25 25 25 28 45 139 156 141 131 124 110 97 91 82
243 244 244 244 244 244 243 242 241 240 240 240 239 237 235 234 233 232 230 229 228 226 225 226 226 227 227 228 228 227 227 227 226 221 217 216 218 221 221 221 223 227 230 232 234 235 236 237 240 242 242 243 244 244 245 247 250 252 254 256 266 278 288 299 309 319 330 340 351 358 4 10 18 23 27 28 30 36 142 192 186 172 160 149 141 136 128
242 242 242 242 243 243 243 242 240 238 238 238 238 237 235 233 232 231 230 228 227 226 225 224 224 224 225 226 226 226 226 227 225 221 217 217 218 220 221 222 223 225 228 230 230 231 233 234 236 239 242 243 242 241 240 240 243 247 249 248 251 261 272 283 295 305 315 325 336 345 353 0 8 15 22 27 31 35 41 211 212 208 202 196 189 188 187
243 241 241 241 242 243 242 240 237 235 235 235 235 234 233 232 231 230 228 227 226 225 224 224 224 223 223 223 224 224 225 226 224 220 217 217 218 219 221 222 223 224 227 228 227 228 231 233 233 235 239 242 242 241 241 240 240 242 245 245 244 246 254 265 276 287 299 309 317 327 338 347 354 2 9 17 26 32 36 29 229 224 223 222 218 217 218
244 242 240 240 241 241 240 238 236 234 233 233 233 233 232 230 229 227 227 226 225 224 224 224 223 222 222 222 222 223 225 226 225 221 218 217 218 219 221 223 224 224 225 226 225 225 229 231 231 232 236 240 242 241 242 243 243 242 243 245 244 244 247 253 260 268 278 288 296 305 317 327 336 343 350 359 9 21 30 32 28 262 238 234 232 232 235
246 244 240 239 240 241 240 238 236 234 233 233 233 233 231 230 228 227 226 225 223 222 222 222 221 220 220 220 221 222 224 226 225 222 218 218 218 219 222 224 224 223 224 225 224 224 226 230 231 230 232 237 240 240 240 242 245 245 243 243 244 244 245 248 252 256 261 268 275 283 293 305 314 320 326 334 342 353 6 15 22 25 355 265 246 242 242
246 245 241 237 237 239 240 238 235 233 232 232 233 232 231 230 228 227 225 224 223 221 221 221 220 220 219 219 220 221 223 226 226 223 220 219 219 220 222 225 225 223 224 225 225 224 224 228 231 231 231 233 237 238 237 239 243 245 245 244 244 243 243 245 248 250 252 255 260 266 273 282 290 296 301 308 315 323 332 339 345 355 5 4 339 285 261
243 242 239 235 234 237 239 238 235 233 231 231 231 231 231 229 228 226 225 224 223 222 221 221 220 220 219 219 219 221 223 225 226 224 221 220 219 220 223 225 225 223 222 224 226 224 224 226 229 231 231 232 234 237 236 235 238 242 244 245 245 244 243 242 243 245 248 249 252 256 262 266 271 276 280 284 289 295 303 309 314 318 321 325 331 331 321
240 239 236 233 231 233 237 237 235 232 231 230 230 230 229 228 227 226 225 224 223 222 221 220 219 219 219 218 219 221 222 224 226 225 222 220 220 222 224 226 226 223 222 223 225 226 226 226 227 230 232 232 233 235 236 235 235 238 241 244 245 245 244 242 240 240 243 245 247 250 254 256 258 261 264 267 270 274 278 282 287 292 296 298 300 302 301
238 237 235 232 229 230 233 236 235 232 230 230 229 229 229 228 226 224 224 223 223 222 221 219 219 218 218 218 219 221 222 224 226 226 224 221 221 222 224 226 226 224 222 223 224 226 227 227 227 229 231 231 231 233 235 235 234 235 238 241 243 244 244 242 240 238 238 240 242 243 246 249 251 252 254 257 260 262 265 268 271 274 276 278 282 285 287
236 235 234 233 230 229 231 234 235 233 231 230 230 230 230 228 226 225 223 223 222 222 221 220 219 218 218 218 219 221 222 223 225 226 225 223 221 222 224 226 226 225 223 223 223 225 227 228 228 229 231 231 230 230 232 234 234 233 235 238 241 242 242 241 240 238 236 237 238 240 242 245 248 250 252 254 256 259 261 263 264 266 268 270 272 275 277
233 232 232 232 231 230 230 233 234 234 232 231 230 231 230 229 227 225 224 223 223 223 222 221 219 219 218 218 219 221 222 223 224 225 225 223 222 223 224 225 226 225 224 223 224 225 227 228 228 228 230 232 231 229 230 232 234 234 234 235 237 239 241 240 240 239 237 236 236 239 241 244 247 250 253 255 256 258 260 261 262 263 264 266 268 269 271
234 232 231 231 231 231 231 233 234 234 233 231 230 230 230 230 228 226 225 224 223 224 223 222 221 220 220 219 219 221 222 223 224 225 225 224 223 223 223 224 225 225 224 223 223 224 225 227 228 228 229 231 232 231 229 229 231 234 235 235 235 237 239 240 240 239 239 238 238 239 242 245 247 250 253 255 257 258 258 259 260 261 263 264 265 266 268
236 234 232 231 231 231 231 232 233 234 233 231 229 229 230 229 229 228 226 225 224 224 224 224 223 222 221 220 220 221 223 224 225 226 225 224 223 223 223 223 224 225 225 224 224 224 224 226 228 228 227 228 231 232 231 229 229 231 233 234 234 235 237 239 240 240 240 241 242 243 245 248 250 252 253 255 257 258 259 259 260 260 261 263 264 265 266
237 236 234 233 231 231 231 232 233 234 233 231 229 229 229 229 229 229 228 226 225 225 225 225 224 224 224 223 222 222 223 224 225 226 227 225 224 223 223 222 223 225 226 225 224 224 224 225 227 228 227 227 229 232 232 231 229 229 231 233 234 234 235 237 239 241 242 243 244 247 249 252 254 255 256 257 258 259 260 261 262 263 264 265 266 268 269
240 238 237 236 234 233 232 232 233 233 233 232 230 229 229 229 230 229 229 228 227 226 226 226 226 226 225 225 224 224 224 224 225 227 228 227 225 224 223 222 222 225 226 226 225 225 225 226 227 229 229 228 229 230 233 234 233 231 231 232 233 234 234 235 237 240 243 244 246 247 249 252 254 256 258 259 261 261 262 262 263 265 266 267 269 270 271
240 240 239 237 236 234 233 233 233 233 233 232 232 231 230 230 230 230 230 229 229 228 228 228 228 227 227 226 226 225 225 225 225 226 228 228 227 225 223 222 222 224 226 226 226 226 226 226 227 229 230 230 229 230 231 234 236 236 235 235 234 235 235 235 236 239 242 245 247 248 249 251 253 255 257 259 260 262 264 265 266 268 269 270 271 272 273
Height
10606 10604 10602 10597 10593 10594 10595 10593 10590 10587 10583 10580 10580 10579 10577 10575 10576 10576 10573 10571 10571 10567 10565 10567 10568 10566 10564 10562 10560 10558 10557 10556 10554 10553 10551 10549 10545 10542 10539 10536 10534 10531 10527 10524 10522 10520 10518 10517 10516 10516 10517 10519 10521 10522 10524 10526 10531 10538 10540 10538 10535 10533 10533 10536 10538 10541 10542 10544 10546 10550 10554 10559 10562 10565 10567 10569 10569 10570 10571 10571 10572 10575 10578 10580 10583 10586 10590
10600 10596 10595 10592 10589 10589 10590 10588 10585 10580 10576 10575 10576 10575 10572 10570 10570 10569 10567 10568 10566 10560 10559 10562 10562 10560 10559 10558 10556 10554 10552 10551 10550 10548 10547 10545 10542 10538 10534 10532 10530 10527 10524 10521 10518 10516 10515 10513 10512 10511 10511 10513 10514 10516 10519 10521 10524 10528 10530 10528 10526 10526 10527 10529 10531 10533 10535 10536 10537 10540 10544 10549 10552 10555 10557 10559 10559 10560 10561 10560 10561 10563 10567 10570 10572 10576 10580
10595 10590 10587 10585 10584 10584 10586 10583 10578 10572 10570 10572 10571 10569 10566 10564 10563 10562 10561 10562 10560 10554 10554 10556 10555 10554 10554 10554 10552 10551 10549 10548 10546 10544 10543 10541 10538 10535 10531 10528 10526 10524 10521 10518 10515 10513 10511 10510 10509 10508 10508 10509 10510 10512 10513 10515 10517 10518 10519 10519 10519 10520 10521 10522 10524 10526 10528 10529 10530 10533 10536 10540 10542 10544 10545 10547 10548 10549 10551 10551 10551 10553 10557 10560 10562 10565 10569
10589 10585 10580 10578 10577 10579 10582 10577 10568 10564 10566 10567 10565 10562 10560 10559 10557 10556 10554 10554 10553 10550 10550 10550 10549 10548 10548 10548 10547 10547 10545 10544 10542 10540 10539 10538 10535 10531 10528 10524 10522 10520 10518 10515 10512 10510 10508 10507 10505 10505 10505 10505 10506 10507 10508 10509 10509 10509 10510 10512 10513 10514 10516 10517 10519 10521 10522 10522 10524 10526 10528 10530 10533 10534 10534 10536 10537 10539 10541 10543 10544 10545 10547 10550 10552 10554 10558
10581 10579 10574 10570 10570 10576 10577 10568 10559 10559 10561 10560 10558 10556 10554 10553 10552 10550 10549 10548 10546 10545 10545 10544 10543 10543 10542 10542 10541 10541 10540 10539 10538 10537 10536 10534 10531 10528 10524 10521 10518 10517 10514 10512 10510 10508 10505 10504 10503 10502 10501 10501 10502 10503 10504 10503 10503 10503 10504 10506 10507 10509 10511 10512 10514 10515 10515 10516 10517 10518 10520 10521 10523 10525 10525 10526 10528 10529 10532 10534 10535 10536 10537 10539 10541 10542 10545
10571 10572 10567 10562 10565 10571 10568 10557 10553 10555 10554 10551 10551 10551 10548 10546 10545 10544 10544 10543 10540 10538 10539 10538 10537 10537 10537 10537 10536 10536 10535 10534 10533 10533 10532 10530 10528 10525 10521 10517 10514 10511 10509 10508 10507 10506 10504 10502 10501 10499 10498 10498 10498 10499 10500 10499 10499 10499 10500 10501 10502 10503 10505 10507 10509 10509 10509 10510 10510 10511 10512 10513 10514 10515 10517 10518 10519 10521 10523 10525 10527 10527 10527 10527 10529 10529 10531
10558 10561 10558 10555 10560 10563 10557 10550 10549 10548 10545 10544 10545 10546 10543 10540 10537 10536 10538 10538 10535 10533 10532 10531 10531 10531 10531 10532 10531 10530 10530 10528 10528 10529 10528 10526 10524 10522 10519 10515 10511 10507 10505 10502 10501 10501 10502 10501 10500 10498 10497 10496 10496 10496 10496 10496 10496 10496 10496 10497 10498 10499 10500 10501 10502 10503 10503 10504 10504 10505 10505 10506 10506 10508 10509 10510 10511 10512 10514 10516 10517 10517 10516 10516 10516 10517 10519
10545 10548 10547 10548 10551 10551 10547 10546 10543 10538 10535 10536 10539 10540 10538 10533 10529 10530 10532 10532 10530 10528 10527 10526 10525 10526 10526 10527 10526 10526 10524 10523 10523 10525 10524 10523 10521 10519 10517 10514 10511 10507 10504 10500 10498 10497 10498 10498 10498 10497 10495 10494 10494 10494 10493 10493 10493 10492 10493 10493 10494 10494 10495 10495 10496 10496 10497 10497 10498 10498 10498 10500 10501 10501 10502 10502 10502 10503 10504 10506 10507 10507 10506 10506 10504 10505 10508
10532 10534 10536 10538 10540 10541 10541 10539 10534 10529 10527 10529 10531 10533 10533 10527 10522 10523 10526 10525 10524 10523 10523 10521 10520 10521 10521 10521 10521 10520 10519 10518 10519 10520 10519 10518 10517 10515 10514 10512 10509 10506 10503 10500 10497 10495 10494 10494 10495 10495 10494 10493 10492 10492 10491 10490 10490 10489 10489 10489 10490 10490 10490 10490 10490 10489 10490 10490 10490 10491 10492 10493 10494 10494 10494 10494 10494 10495 10496 10496 10497 10497 10497 10495 10494 10495 10498
10521 10521 10524 10527 10530 10532 10532 10529 10524 10521 10520 10521 10522 10525 10526 10520 10515 10516 10521 10520 10518 10518 10517 10516 10515 10515 10516 10515 10515 10515 10514 10514 10515 10515 10514 10514 10513 10512 10510 10508 10506 10504 10502 10499 10496 10494 10493 10492 10491 10491 10492 10491 10491 10490 10489 10488 10487 10486 10486 10486 10486 10486 10486 10486 10485 10485 10484 10484 10484 10484 10485 10486 10486 10486 10486 10486 10486 10487 10487 10487 10487 10486 10485 10485 10485 10486 10487
10513 10512 10513 10516 10519 10522 10521 10518 10516 10514 10513 10514 10514 10516 10518 10513 10508 10511 10515 10514 10512 10512 10511 10511 10511 10510 10510 10510 10510 10510 10509 10510 10510 10510 10510 10510 10509 10508 10506 10504 10502 10501 10499 10497 10494 10492 10491 10489 10488 10488 10488 10488 10488 10487 10486 10486 10485 10484 10484 10483 10483 10482 10482 10481 10481 10480 10479 10479 10479 10479 10479 10478 10478 10478 10478 10478 10478 10478 10479 10479 10478 10476 10475 10475 10477 10478 10479
10502 10502 10503 10506 10510 10511 10511 10509 10508 10507 10506 10506 10506 10508 10510 10505 10503 10507 10509 10506 10505 10505 10505 10506 10506 10505 10505 10504 10504 10504 10505 10506 10506 10505 10505 10505 10504 10504 10503 10500 10498 10497 10495 10494 10492 10490 10488 10486 10485 10484 10484 10484 10483 10483 10482 10482 10481 10481 10480 10479 10479 10478 10477 10476 10476 10475 10474 10473 10474 10473 10473 10472 10471 10470 10470 10470 10470 10471 10471 10470 10469 10467 10467 10468 10469 10471 10472
10491 10491 10493 10497 10500 10502 10502 10501 10500 10498 10497 10499 10500 10501 10501 10498 10497 10501 10502 10500 10499 10498 10499 10500 10500 10500 10499 10498 10498 10499 10500 10501 10501 10501 10501 10501 10500 10500 10499 10496 10494 10493 10491 10490 10488 10487 10485 10483 10482 10481 10480 10479 10479 10479 10478 10477 10476 10476 10475 10475 10474 10473 10473 10472 10471 10470 10469 10468 10468 10468 10467 10466 10465 10463 10463 10463 10463 10463 10463 10463 10461 10459 10459 10461 10463 10464 10465
10482 10482 10483 10486 10491 10493 10491 10490 10490 10488 10490 10493 10494 10494 10492 10490 10491 10493 10493 10493 10493 10492 10493 10494 10494 10494 10493 10493 10493 10494 10495 10496 10497 10497 10497 10497 10496 10496 10495 10493 10490 10489 10487 10485 10484 10483 10482 10480 10479 10478 10477 10476 10476 10476 10475 10473 10472 10472 10471 10470 10469 10469 10468 10467 10466 10465 10464 10463 10463 10462 10461 10460 10459 10457 10457 10457 10457 10456 10456 10456 10454 10452 10452 10454 10456 10457 10458
10472 10472 10473 10477 10481 10482 10478 10479 10481 10481 10482 10484 10486 10486 10485 10483 10484 10486 10486 10486 10487 10488 10488 10487 10487 10488 10488 10488 10488 10489 10490 10491 10492 10493 10493 10493 10492 10492 10491 10489 10487 10485 10483 10481 10480 10479 10478 10477 10476 10475 10475 10474 10473 10472 10472 10470 10469 10468 10467 10466 10465 10464 10463 10462 10461 10460 10459 10458 10457 10456 10455 10454 10452 10451 10451 10451 10450 10450 10450 10449 10447 10445 10445 10447 10448 10449 10450
10461 10462 10464 10466 10469 10470 10469 10471 10473 10472 10473 10475 10477 10479 10479 10477 10476 10478 10478 10478 10480 10481 10481 10481 10482 10482 10482 10483 10483 10484 10485 10486 10487 10488 10489 10489 10489 10488 10487 10486 10484 10482 10480 10478 10476 10475 10475 10474 10473 10472 10472 10471 10470 10468 10467 10466 10465 10464 10462 10461 10460 10459 10458 10457 10456 10455 10454 10453 10452 10451 10450 10449 10447 10445 10445 10445 10444 10444 10443 10441 10440 10438 10438 10439 10440 10441 10442
10451 10453 10455 10456 10458 10460 10461 10462 10463 10464 10465 10467 10468 10470 10472 10471 10469 10469 10470 10471 10472 10473 10475 10476 10477 10477 10477 10478 10478 10479 10480 10481 10482 10484 10484 10484 10484 10484 10483 10482 10481 10479 10477 10474 10472 10472 10471 10470 10469 10469 10468 10467 10466 10465 10463 10462 10461 10459 10458 10457 10455 10454 10452 10452 10450 10449 10448 10447 10446 10446 10445 10443 10441 10439 10439 10438 10438 10437 10436 10434 10433 10432 10431 10431 10432 10433 10433
10442 10443 10446 10447 10448 10450 10450 10452 10454 10456 10457 10458 10459 10461 10463 10463 10463 10463 10463 10465 10466 10466 10468 10470 10471 10472 10472 10473 10474 10474 10475 10476 10477 10479 10480 10480 10480 10480 10479 10478 10477 10475 10473 10471 10469 10468 10467 10466 10466 10465 10464 10464 10463 10461 10460 10459 10457 10456 10454 10452 10451 10449 10447 10446 10445 10444 10443 10442 10441 10441 10439 10438 10436 10434 10433 10432 10431 10430 10429 10427 10426 10425 10424 10423 10423 10423 10424
10432 10434 10437 10437 10436 10437 10440 10443 10445 10446 10448 10449 10449 10451 10453 10454 10455 10456 10458 10460 10460 10460 10461 10463 10464 10465 10466 10468 10470 10470 10470 10471 10472 10473 10475 10476 10476 10475 10475 10474 10473 10472 10470 10468 10466 10464 10463 10463 10462 10461 10460 10460 10459 10458 10456 10455 10454 10452 10450 10448 10446 10444 10443 10442 10441 10439 10438 10437 10436 10435 10434 10432 10431 10429 10427 10425 10425 10423 10422 10420 10419 10417 10416 10415 10414 10414 10415
10422 10425 10426 10425 10424 10427 10430 10433 10434 10436 10439 10440 10440 10442 10444 10445 10446 10448 10450 10453 10455 10454 10455 10457 10458 10459 10460 10462 10464 10466 10466 10467 10467 10467 10469 10471 10472 10471 10471 10470 10469 10467 10466 10465 10463 10461 10460 10459 10458 10458 10457 10456 10455 10454 10453 10452 10450 10448 10446 10444 10442 10440 10439 10437 10436 10435 10434 10433 10431 10430 10429 10427 10425 10423 10421 10419 10418 10416 10414 10413 10411 10409 10408 10407 10407 10407 10407
10412 10415 10414 10411 10413 10418 10420 10421 10424 10426 10428 10430 10432 10433 10434 10436 10438 10440 10441 10444 10447 10448 10449 10450 10451 10452 10454 10456 10458 10460 10461 10462 10463 10463 10463 10465 10466 10467 10467 10466 10465 10464 10462 10461 10460 10459 10457 10456 10455 10454 10453 10452 10451 10451 10450 10449 10447 10445 10443 10441 10438 10437 10435 10433 10432 10431 10429 10428 10427 10425 10424 10422 10420 10418 10416 10413 10411 10409 10407 10405 10404 10402 10401 10400 10399 10400 10399
10403 10403 10400 10398 10404 10410 10410 10410 10414 10416 10417 10420 10422 10423 10425 10427 10430 10432 10432 10435 10439 10441 10442 10444 10445 10445 10447 10450 10451 10453 10455 10457 10458 10458 10459 10460 10461 10462 10462 10462 10462 10460 10459 10458 10457 10456 10455 10453 10452 10452 10450 10449 10448 10447 10447 10446 10444 10442 10440 10438 10436 10434 10432 10430 10429 10427 10425 10424 10422 10420 10418 10417 10414 10412 10410 10408 10405 10402 10400 10399 10397 10396 10394 10392 10392 10392 10392
10390 10389 10386 10389 10396 10401 10400 10401 10404 10406 10407 10409 10411 10413 10415 10418 10421 10423 10425 10427 10431 10433 10435 10437 10439 10440 10442 10443 10444 10446 10449 10451 10453 10454 10454 10455 10455 10456 10458 10458 10458 10457 10455 10454 10454 10453 10452 10451 10450 10449 10448 10446 10445 10444 10443 10442 10440 10439 10437 10435 10433 10431 10429 10427 10425 10423 10421 10419 10417 10414 10412 10411 10409 10406 10404 10402 10400 10397 10394 10392 10391 10389 10388 10387 10385 10385 10384
10379 10379 10379 10382 10388 10391 10391 10392 10393 10393 10395 10399 10401 10403 10405 10408 10412 10415 10416 10419 10422 10426 10428 10430 10433 10435 10435 10436 10437 10440 10443 10446 10448 10449 10450 10451 10451 10452 10453 10454 10454 10453 10452 10451 10450 10450 10449 10448 10447 10446 10445 10444 10443 10441 10440 10439 10437 10436 10434 10432 10430 10428 10426 10424 10422 10419 10417 10415 10413 10410 10408 10406 10404 10401 10399 10397 10395 10392 10390 10387 10385 10384 10382 10381 10380 10379 10378
10371 10372 10372 10374 10379 10381 10380 10380 10381 10381 10383 10388 10392 10393 10396 10399 10402 10405 10407 10410 10413 10417 10420 10423 10426 10428 10429 10428 10430 10434 10437 10440 10442 10444 10445 10446 10447 10447 10448 10449 10449 10449 10448 10447 10447 10446 10446 10445 10444 10444 10443 10441 10440 10439 10438 10437 10435 10433 10431 10430 10427 10425 10423 10421 10419 10417 10415 10413 10410 10408 10405 10402 10400 10397 10394 10392 10390 10388 10385 10383 10381 10379 10378 10376 10375 10374 10374
10362 10363 10363 10365 10369 10370 10369 10369 10370 10372 10375 10380 10383 10386 10387 10390 10393 10396 10398 10401 10404 10408 10412 10415 10419 10422 10424 10423 10423 10426 10431 10434 10436 10438 10440 10441 10442 10443 10444 10444 10445 10445 10445 10444 10443 10443 10443 10442 10442 10441 10440 10439 10438 10437 10436 10435 10433 10432 10430 10428 10426 10424 10422 10419 10417 10415 10412 10410 10408 10405 10402 10400 10397 10393 10389 10387 10386 10384 10381 10379 10377 10376 10374 10373 10372 10371 10371
10351 10352 10353 10357 10359 10359 10358 10359 10362 10365 10369 10371 10374 10377 10379 10380 10383 10386 10389 10392 10396 10400 10404 10407 10411 10415 10418 10417 10416 10419 10425 10428 10430 10432 10434 10436 10437 10439 10439 10440 10441 10441 10441 10440 10440 10440 10440 10440 10439 10439 10438 10437 10436 10435 10434 10433 10431 10430 10428 10426 10424 10422 10420 10417 10415 10412 10410 10408 10405 10402 10399 10396 10394 10390 10387 10384 10382 10380 10378 10376 10375 10373 10372 10371 10370 10369 10369
10340 10341 10344 10348 10349 10348 10349 10351 10354 10357 10359 10361 10363 10366 10369 10371 10374 10377 10380 10383 10387 10391 10394 10398 10403 10407 10410 10410 10409 10412 10418 10421 10423 10426 10429 10431 10432 10434 10435 10436 10437 10437 10437 10437 10437 10437 10437 10437 10436 10436 10435 10435 10434 10433 10432 10431 10430 10428 10427 10425 10423 10421 10418 10415 10413 10411 10408 10406 10403 10400 10397 10394 10391 10388 10385 10382 10380 10378 10376 10374 10373 10372 10371 10370 10370 10369 10369
10331 10333 10335 10338 10339 10339 10340 10343 10346 10348 10349 10351 10353 10357 10359 10362 10365 10368 10371 10374 10378 10382 10386 10390 10394 10399 10402 10401 10402 10406 10412 10415 10417 10420 10423 10425 10427 10429 10430 10432 10433 10433 10433 10433 10433 10433 10433 10434 10433 10433 10432 10432 10431 10430 10430 10429 10428 10426 10425 10423 10421 10419 10417 10414 10412 10410 10407 10405 10402 10399 10396 10393 10389 10386 10383 10380 10378 10376 10375 10373 10373 10372 10371 10371 10371 10370 10370
10323 10324 10326 10328 10330 10331 10332 10334 10336 10338 10340 10342 10345 10347 10350 10353 10356 10360 10363 10366 10370 10374 10378 10382 10385 10389 10393 10394 10396 10400 10405 10408 10411 10414 10417 10420 10422 10424 10425 10427 10428 10429 10429 10429 10429 10429 10430 10430 10430 10430 10429 10429 10428 10428 10427 10426 10425 10424 10422 10421 10419 10418 10415 10413 10411 10409 10407 10404 10401 10398 10395 10392 10388 10385 10382 10379 10377 10376 10374 10374 10373 10373 10373 10372 10372 10372 10372
10314 10316 10318 10319 10321 10323 10323 10324 10326 10329 10331 10334 10337 10339 10342 10346 10349 10352 10355 10358 10362 10366 10370 10374 10377 10381 10384 10387 10390 10394 10398 10402 10405 10408 10412 10415 10417 10418 10420 10422 10424 10424 10425 10425 10425 10425 10426 10426 10427 10427 10426 10426 10426 10425 10424 10424 10423 10422 10421 10419 10418 10416 10415 10413 10411 10409 10407 10404 10401 10398 10394 10391 10388 10384 10382 10379 10377 10376 10375 10374 10374 10374 10374 10374 10374 10374 10374
10306 10308 10310 10311 10313 10314 10315 10316 10318 10322 10325 10327 10329 10331 10334 10338 10341 10344 10348 10351 10355 10359 10363 10366 10370 10373 10377 10380 10383 10387 10392 10396 10399 10402 10406 10408 10410 10413 10415 10417 10419 10420 10420 10421 10421 10421 10422 10423 10423 10423 10423 10423 10423 10422 10422 10421 10420 10420 10419 10418 10417 10416 10414 10412 10411 10408 10406 10404 10401 10397 10394 10391 10388 10385 10382 10380 10378 10376 10376 10376 10376 10376 10376 10376 10375 10375 10375
10298 10300 10302 10303 10304 10305 10307 10309 10312 10315 10318 10320 10322 10324 10327 10331 10334 10338 10341 10345 10348 10351 10355 10359 10362 10365 10369 10372 10376 10381 10386 10390 10393 10396 10399 10402 10404 10407 10409 10412 10414 10415 10416 10416 10416 10417 10418 10419 10420 10420 10420 10420 10420 10419 10419 10419 10418 10418 10417 10416 10416 10415 10413 10412 10410 10408 10406 10403 10401 10398 10394 10391 10389 10386 10383 10381 10379 10378 10378 10378 10378 10378 10378 10378 10377 10377 10377
10290 10292 10294 10294 10295 10298 10300 10303 10305 10307 10310 10312 10315 10318 10320 10324 10327 10331 10334 10337 10341 10344 10348 10352 10355 10359 10362 10365 10370 10374 10379 10383 10386 10388 10391 10395 10398 10401 10404 10407 10409 10410 10411 10412 10412 10413 10414 10415 10416 10416 10417 10417 10417 10416 10416 10416 10416 10416 10415 10415 10414 10414 10413 10411 10410 10407 10405 10403 10400 10398 10395 10393 10390 10388 10385 10383 10381 10380 10380 10380 10380 10380 10380 10380 10380 10380 10380
10282 10283 10284 10286 10289 10291 10293 10295 10298 10300 10302 10305 10308 10311 10313 10316 10320 10324 10327 10330 10334 10338 10341 10345 10349 10353 10356 10360 10364 10369 10373 10376 10379 10381 10385 10389 10392 10395 10399 10402 10404 10405 10406 10407 10407 10408 10410 10411 10412 10413 10413 10413 10413 10414 10414 10414 10414 10414 10413 10413 10412 10412 10411 10410 10409 10407 10405 10403 10400 10398 10396 10394 10392 10389 10387 10385 10383 10382 10382 10382 10382 10382 10382 10383 10383 10383 10383
10272 10273 10276 10279 10282 10283 10284 10288 10292 10295 10297 10299 10302 10305 10307 10310 10314 10317 10320 10323 10327 10331 10334 10338 10342 10346 10350 10354 10359 10364 10368 10372 10374 10377 10380 10384 10388 10391 10394 10397 10398 10400 10401 10402 10403 10404 10406 10407 10408 10409 10409 10410 10410 10411 10411 10411 10411 10411 10411 10411 10411 10410 10409 10409 10408 10406 10404 10402 10400 10399 10397 10395 10393 10391 10389 10387 10385 10384 10384 10384 10384 10384 10384 10385 10385 10386 10386
10263 10266 10269 10272 10273 10275 10278 10283 10287 10290 10291 10293 10295 10299 10301 10304 10306 10310 10313 10316 10320 10323 10327 10331 10335 10339 10343 10348 10353 10358 10363 10366 10369 10372 10376 10379 10382 10385 10388 10391 10393 10395 10396 10397 10398 10400 10401 10403 10404 10404 10405 10406 10407 10408 10408 10408 10408 10408 10409 10409 10409 10408 10408 10407 10406 10405 10403 10402 10400 10399 10398 10396 10394 10393 10391 10389 10388 10386 10386 10386 10386 10386 10386 10387 10387 10388 10389
10256 10259 10262 10264 10266 10269 10273 10278 10281 10283 10285 10287 10289 10291 10294 10297 10300 10303 10307 10310 10313 10316 10320 10324 10328 10332 10337 10341 10347 10352 10356 10359 10363 10366 10370 10373 10376 10379 10382 10385 10387 10389 10390 10392 10394 10396 10397 10398 10399 10401 10401 10402 10404 10405 10405 10405 10405 10405 10406 10406 10407 10406 10406 10405 10405 10404 10403 10401 10400 10399 10398 10397 10395 10394 10393 10391 10390 10388 10387 10387 10387 10387 10388 10388 10389 10389 10390
10249 10253 10256 10258 10260 10263 10266 10269 10272 10274 10277 10279 10281 10283 10286 10290 10293 10296 10299 10302 10306 10310 10314 10317 10321 10326 10330 10335 10340 10345 10348 10352 10356 10360 10363 10366 10369 10373 10376 10379 10381 10383 10385 10388 10390 10392 10392 10394 10395 10397 10397 10398 10400 10401 10401 10402 10402 10402 10403 10403 10404 10404 10404 10404 10403 10402 10402 10401 10400 10399 10398 10397 10396 10394 10393 10392 10391 10390 10389 10388 10388 10388 10388 10389 10389 10390 10391
10241 10246 10250 10252 10253 10256 10258 10261 10264 10267 10269 10271 10273 10276 10279 10283 10286 10289 10292 10295 10299 10304 10307 10311 10315 10320 10324 10329 10334 10338 10341 10345 10350 10354 10357 10360 10363 10367 10370 10372 10375 10377 10380 10383 10385 10387 10388 10390 10391 10393 10394 10394 10395 10397 10397 10398 10398 10399 10400 10400 10401 10402 10402 10402 10401 10401 10401 10400 10399 10399 10398 10397 10396 10395 10394 10393 10392 10391 10390 10389 10388 10388 10388 10389 10389 10390 10391
10235 10240 10245 10247 10247 10248 10250 10253 10256 10259 10262 10264 10266 10269 10273 10276 10279 10282 10285 10289 10293 10297 10300 10304 10308 10312 10316 10321 10327 10331 10335 10339 10344 10348 10351 10354 10358 10361 10364 10366 10368 10372 10375 10378 10380 10382 10384 10385 10387 10388 10390 10390 10391 10392 10394 10394 10394 10395 10396 10397 10398 10398 10399 10399 10399 10399 10399 10399 10398 10398 10397 10396 10395 10394 10394 10393 10392 10392 10391 10390 10389 10389 10389 10389 10389 10389 10390
10229 10233 10237 10240 10241 10240 10241 10244 10248 10252 10255 10257 10260 10263 10266 10269 10272 10275 10278 10282 10286 10289 10293 10296 10301 10305 10309 10315 10320 10324 10328 10333 10337 10342 10345 10348 10352 10355 10358 10360 10363 10367 10371 10373 10375 10378 10380 10381 10382 10384 10386 10387 10387 10388 10390 10391 10391 10391 10392 10393 10394 10395 10396 10396 10397 10397 10397 10397 10397 10397 10396 10395 10395 10394 10394 10393 10393 10392 10391 10390 10390 10389 10389 10389 10389 10389 10389
10222 10225 10228 10231 10232 10232 10233 10237 10241 10244 10247 10249 10252 10255 10258 10262 10265 10269 10273 10276 10280 10283 10287 10291 10296 10300 10304 10309 10313 10317 10321 10326 10330 10335 10339 10342 10346 10349 10352 10354 10357 10361 10365 10367 10370 10373 10375 10377 10378 10380 10381 10383 10384 10385 10386 10388 10388 10388 10388 10389 10390 10391 10392 10393 10394 10394 10395 10395 10395 10395 10394 10394 10393 10393 10393 10393 10392 10391 10391 10390 10390 10389 10389 10389 10388 10389 10389
10214 10216 10219 10222 10224 10225 10226 10228 10232 10236 10239 10242 10244 10247 10250 10254 10259 10263 10267 10270 10274 10277 10281 10286 10290 10293 10297 10302 10306 10310 10314 10319 10323 10328 10332 10336 10340 10344 10346 10348 10351 10356 10359 10362 10365 10368 10370 10372 10374 10375 10377 10378 10380 10381 10383 10384 10384 10385 10385 10386 10387 10388 10389 10390 10391 10391 10392 10392 10393 10393 10392 10392 10392 10391 10391 10391 10391 10390 10390 10389 10389 10389 10389 10388 10388 10388 10388
10206 10208 10210 10213 10216 10217 10218 10220 10224 10228 10232 10235 10238 10240 10243 10248 10252 10257 10260 10263 10267 10271 10275 10278 10282 10286 10290 10295 10299 10303 10308 10312 10317 10321 10326 10330 10334 10337 10339 10342 10346 10350 10354 10357 10360 10363 10365 10367 10369 10370 10372 10374 10376 10377 10378 10379 10380 10381 10381 10382 10383 10384 10385 10386 10387 10388 10389 10389 10390 10390 10390 10390 10390 10390 10389 10389 10389 10388 10388 10388 10388 10388 10388 10387 10387 10387 10387
10198 10200 10203 10205 10208 10210 10211 10213 10217 10222 10226 10229 10231 10234 10238 10242 10247 10250 10254 10257 10260 10264 10267 10271 10275 10279 10283 10287 10292 10296 10301 10305 10310 10315 10319 10324 10327 10329 10332 10335 10340 10344 10348 10352 10355 10357 10359 10361 10363 10365 10367 10369 10371 10373 10374 10375 10376 10377 10377 10378 10379 10379 10380 10382 10383 10384 10385 10386 10386 10387 10387 10387 10387 10387 10387 10387 10387 10386 10386 10386 10386 10386 10386 10385 10385 10385 10385
10190 10192 10195 10198 10201 10204 10205 10207 10211 10215 10219 10222 10226 10230 10234 10237 10240 10244 10247 10250 10253 10257 10261 10264 10268 10271 10276 10281 10285 10289 10294 10298 10302 10307 10312 10316 10320 10322 10325 10329 10333 10337 10341 10345 10348 10351 10353 10355 10357 10360 10361 10363 10365 10367 10369 10370 10371 10372 10373 10373 10374 10375 10376 10377 10378 10380 10381 10382 10383 10383 10384 10384 10385 10385 10385 10385 10385 10385 10384 10384 10384 10384 10383 10383 10383 10383 10383
10183 10185 10188 10191 10194 10197 10200 10203 10205 10208 10212 10216 10221 10224 10228 10231 10234 10237 10240 10244 10247 10250 10254 10257 10261 10265 10269 10274 10278 10282 10286 10290 10294 10299 10304 10308 10311 10314 10317 10322 10326 10330 10334 10337 10340 10343 10345 10348 10350 10353 10355 10357 10359 10361 10363 10365 10366 10367 10367 10368 10370 10371 10372 10373 10374 10375 10376 10377 10378 10379 10380 10380 10381 10381 10382 10382 10382 10382 10382 10382 10382 10381 10381 10381 10381 10381 10381
10177 10179 10182 10185 10188 10191 10194 10197 10199 10202 10206 10211 10215 10218 10221 10224 10228 10231 10234 10237 10240 10243 10247 10251 10255 10258 10262 10267 10271 10275 10279 10283 10287 10291 10295 10300 10303 10306 10310 10315 10320 10323 10327 10330 10332 10335 10339 10341 10343 10346 10348 10351 10353 10354 10356 10358 10360 10361 10362 10363 10365 10366 10367 10368 10369 10370 10372 10373 10374 10374 10375 10376 10377 10378 10378 10378 10378 10378 10378 10379 10379 10379 10378 10378 10378 10378 10379
10172 10174 10177 10179 10182 10185 10188 10191 10194 10197 10201 10205 10208 10211 10215 10219 10222 10225 10228 10231 10234 10237 10240 10244 10248 10251 10256 10260 10264 10268 10272 10276 10279 10283 10287 10292 10296 10300 10304 10308 10313 10316 10319 10322 10325 10328 10332 10335 10337 10339 10342 10345 10347 10348 10350 10352 10354 10355 10357 10358 10359 10361 10362 10363 10364 10366 10367 10368 10369 10370 10371 10371 10372 10373 10373 10374 10374 10374 10374 10374 10374 10374 10374 10375 10375 10375 10375
10168 10170 10172 10175 10178 10181 10183 10186 10188 10191 10195 10198 10202 10206 10210 10213 10216 10219 10222 10225 10228 10231 10235 10238 10241 10245 10249 10253 10257 10261 10265 10269 10273 10276 10280 10285 10290 10293 10297 10300 10304 10308 10312 10315 10319 10322 10326 10329 10332 10334 10337 10339 10341 10343 10344 10346 10348 10350 10351 10353 10354 10355 10357 10358 10360 10361 10362 10363 10365 10366 10366 10366 10367 10368 10368 10368 10369 10369 10370 10370 10370 10370 10370 10370 10370 10370 10370
10164 10166 10168 10170 10173 10175 10178 10180 10183 10186 10189 10193 10197 10200 10204 10207 10210 10213 10216 10220 10223 10226 10229 10232 10235 10239 10243 10247 10251 10254 10258 10262 10266 10270 10273 10277 10282 10286 10289 10292 10296 10301 10305 10309 10312 10316 10319 10323 10326 10328 10330 10332 10335 10338 10340 10342 10343 10345 10346 10347 10349 10350 10352 10354 10355 10356 10357 10359 10360 10361 10361 10362 10363 10363 10363 10364 10364 10364 10364 10365 10365 10365 10365 10366 10366 10365 10365